Location: Kuppenheim
(48.8299°N, 8.2568°E)
Time: 21:34:41
(UTC+00:00)

Cosmos 990 Rocket - Pass Details

Date: 18 October 2021
Orbit: 746 x 769 km, 74.0° (Epoch: 27 November)

Event Time Altitude Azimuth Distance (km) Brightness Sun altitude
Rises 17:20:25 0° 250° (WSW) 3,213 9.0 -8.8°
Reaches altitude 10° 17:23:28 10° 268° (W) 2,297 8.2 -9.3°
Maximum altitude 17:27:07 19° 313° (NW) 1,770 6.5 -9.9°
Drops below altitude 10° 17:30:48 10° 358° (N) 2,315 6.5 -10.5°
Sets 17:33:54 0° 16° (NNE) 3,249 7.1 -11.0°
